Date String (YYYY-MM-DD hh:mm:ss) UTC,Instrument flags,Ambient pressure (hPa),Sample flow (lpm),Bypass flow (lpm),Sample temperature (°C),Ambient temperature (°C),ASC tube jacket temperature (°C),LED temperature (°C),Box temperature (°C),Sample RH (%),Span deviation,Mass concentration (μg/m³),Mass concentration (μg/m³),Mass concentration (μg/m³)
DateTimeUTC,F1_M11,P_M11,Q1_M11,Q2_M11,T1_M11,T2_M11,T3_M11,T4_M11,T5_M11,U1_M11,ZSPAN_M11,X0_M11,X2_M11,X1_M11
2022-01-28 12:00:00,,0834.5,5.00,0.00,22.6,22.8,00.0,31.4,24.4,05.7,0000.0,0012.71,0002.96,0001.82
2022-01-28 12:01:00,,0834.5,4.99,0.00,22.6,22.6,00.0,31.4,24.3,05.7,0000.0,0013.11,0002.90,0001.69
2022-01-28 12:02:00,,0834.5,5.01,0.00,22.5,22.3,00.0,31.4,24.2,05.7,0000.0,0013.41,0002.84,0001.60
2022-01-28 12:03:00,,0834.5,4.98,0.00,22.4,22.1,00.0,31.4,24.1,05.7,0000.0,0013.45,0002.73,0001.54
2022-01-28 12:04:00,,0834.5,5.00,0.00,22.4,21.9,00.0,31.4,24.0,05.7,0000.0,0013.49,0002.61,0001.46
2022-01-28 12:05:00,,0834.5,5.00,0.00,22.3,21.7,00.0,31.3,23.9,05.7,0000.0,0013.60,0002.55,0001.35
2022-01-28 12:06:00,,0834.5,5.00,0.00,22.3,21.6,00.0,31.3,23.9,05.7,0000.0,0014.05,0002.46,0001.22
2022-01-28 12:07:00,,0834.5,5.00,0.00,22.3,21.6,00.0,31.3,23.9,05.8,0000.0,0013.58,0002.43,0001.15
2022-01-28 12:08:00,,0834.4,5.00,0.00,22.2,21.5,00.0,31.3,23.9,05.8,0000.0,0013.08,0002.40,0001.12
2022-01-28 12:09:00,,0834.4,5.00,0.00,22.2,21.4,00.0,31.3,23.8,05.8,0000.0,0013.01,0002.38,0001.12
2022-01-28 12:10:00,,0834.5,5.00,0.00,22.2,21.5,00.0,31.2,23.8,05.8,0000.0,0012.25,0002.52,0001.13
2022-01-28 12:11:00,,0834.5,5.00,0.00,22.3,22.2,00.0,31.3,24.0,05.8,0000.0,0011.62,0002.48,0001.12
2022-01-28 12:12:00,,0834.5,5.01,0.00,22.4,22.9,00.0,31.3,24.2,05.8,0000.0,0011.57,0002.43,0001.12
2022-01-28 12:13:00,,0834.4,4.99,0.00,22.5,23.1,00.0,31.3,24.4,05.7,0000.0,0011.84,0002.46,0001.13
2022-01-28 12:14:00,,0834.5,5.01,0.00,22.5,22.9,00.0,31.3,24.4,05.7,0000.0,0012.00,0002.57,0001.14
2022-01-28 12:15:00,,0834.5,4.99,0.00,22.5,22.6,00.0,31.3,24.3,05.7,0000.0,0011.95,0002.59,0001.16
2022-01-28 12:16:00,,0834.5,4.99,0.00,22.5,22.4,00.0,31.3,24.2,05.7,0000.0,0011.82,0002.60,0001.17
2022-01-28 12:17:00,,0834.6,5.00,0.00,22.5,22.2,00.0,31.3,24.1,05.7,0000.0,0011.38,0002.61,0001.18
2022-01-28 12:18:00,,0834.6,4.99,0.00,22.4,22.0,00.0,31.3,24.1,05.6,0000.0,0010.80,0002.56,0001.16
2022-01-28 12:19:00,,0834.5,5.01,0.00,22.4,21.8,00.0,31.3,24.0,05.6,0000.0,0009.87,0002.50,0001.14
2022-01-28 12:20:00,,0834.6,5.00,0.00,22.3,21.7,00.0,31.3,23.9,05.7,0000.0,0009.95,0002.52,0001.15
2022-01-28 12:21:00,,0834.5,5.00,0.00,22.3,21.6,00.0,31.3,23.9,05.9,0000.0,0009.74,0002.49,0001.18
2022-01-28 12:22:00,,0834.6,5.01,0.00,22.2,21.5,00.0,31.3,23.8,05.9,0000.0,0009.36,0002.55,0001.19
2022-01-28 12:23:00,,0834.5,5.00,0.00,22.2,21.4,00.0,31.3,23.8,05.8,0000.0,0009.15,0002.63,0001.22
2022-01-28 12:24:00,,0834.5,4.99,0.00,22.1,21.4,00.0,31.2,23.7,05.5,0000.0,0008.49,0002.59,0001.20
2022-01-28 12:25:00,,0834.6,4.99,0.00,22.2,21.8,00.0,31.2,23.8,05.5,0000.0,0007.98,0002.58,0001.20
2022-01-28 12:26:00,,0834.5,5.00,0.00,22.3,22.5,00.0,31.3,24.1,05.6,0000.0,0007.56,0002.60,0001.20
2022-01-28 12:27:00,,0834.5,5.01,0.00,22.4,23.0,00.0,31.3,24.3,05.6,0000.0,0007.87,0002.60,0001.19
2022-01-28 12:28:00,,0834.5,5.00,0.00,22.5,22.8,00.0,31.3,24.3,05.7,0000.0,0008.39,0002.64,0001.20
2022-01-28 12:29:00,,0834.4,5.00,0.00,22.4,22.5,00.0,31.3,24.2,05.6,0000.0,0008.72,0002.76,0001.21
2022-01-28 12:30:00,,0834.4,4.99,0.00,22.4,22.2,00.0,31.3,24.1,05.4,0000.0,0009.57,0002.84,0001.21
2022-01-28 12:31:00,,0834.4,5.00,0.00,22.3,22.0,00.0,31.3,24.0,05.4,0000.0,0009.48,0002.83,0001.18
2022-01-28 12:32:00,,0834.5,5.01,0.00,22.3,21.8,00.0,31.3,23.9,05.5,0000.0,0010.54,0002.82,0001.15
2022-01-28 12:33:00,,0834.5,5.00,0.00,22.2,21.6,00.0,31.3,23.8,05.5,0000.0,0011.34,0002.77,0001.14
2022-01-28 12:34:00,,0834.5,5.01,0.00,22.1,21.4,00.0,31.2,23.7,05.3,0000.0,0011.14,0002.71,0001.11
2022-01-28 12:35:00,,0834.6,5.00,0.00,22.1,21.3,00.0,31.2,23.6,05.1,0000.0,0011.12,0002.69,0001.11
2022-01-28 12:36:00,,0834.6,4.99,0.00,22.0,21.2,00.0,31.2,23.6,05.2,0000.0,0010.97,0002.60,0001.10
2022-01-28 12:37:00,,0834.6,5.00,0.00,22.0,21.6,00.0,31.2,23.7,05.2,0000.0,0010.91,0002.57,0001.09
2022-01-28 12:38:00,,0834.6,5.00,0.00,22.2,22.3,00.0,31.2,23.9,05.1,0000.0,0010.32,0002.49,0001.06
2022-01-28 12:39:00,,0834.6,5.01,0.00,22.3,23.0,00.0,31.2,24.2,05.1,0000.0,0010.69,0002.46,0001.03
2022-01-28 12:40:00,,0834.6,4.99,0.00,22.4,23.0,00.0,31.3,24.3,05.0,0000.0,0010.56,0002.36,0001.02
2022-01-28 12:41:00,,0834.6,5.01,0.00,22.4,22.7,00.0,31.3,24.3,04.9,0000.0,0009.62,0002.24,0001.00
2022-01-28 12:42:00,,0834.6,4.99,0.00,22.4,22.5,00.0,31.3,24.2,04.9,0000.0,0009.14,0002.18,0001.00
2022-01-28 12:43:00,,0834.6,5.00,0.00,22.4,22.3,00.0,31.3,24.1,05.0,0000.0,0008.10,0002.08,0001.00
2022-01-28 12:44:00,,0834.6,4.99,0.00,22.3,22.1,00.0,31.3,24.0,05.0,0000.0,0006.87,0002.02,0000.97
2022-01-28 12:45:00,,0834.6,5.01,0.00,22.3,21.9,00.0,31.3,23.9,05.0,0000.0,0006.70,0002.01,0000.97
2022-01-28 12:46:00,,0834.6,5.00,0.00,22.3,21.8,00.0,31.2,23.9,05.0,0000.0,0006.51,0001.97,0000.97
2022-01-28 12:47:00,,0834.7,5.01,0.00,22.2,21.6,00.0,31.2,23.9,05.0,0000.0,0006.36,0001.94,0000.98
2022-01-28 12:48:00,,0834.7,4.99,0.00,22.2,21.6,00.0,31.2,23.8,05.1,0000.0,0006.49,0001.85,0000.99
2022-01-28 12:49:00,,0834.7,5.00,0.00,22.2,21.5,00.0,31.2,23.8,05.1,0000.0,0006.82,0001.84,0001.00
2022-01-28 12:50:00,,0834.7,5.00,0.00,22.1,21.4,00.0,31.2,23.7,05.0,0000.0,0005.27,0001.76,0001.00
2022-01-28 12:51:00,,0834.7,5.00,0.00,22.1,21.8,00.0,31.2,23.8,05.0,0000.0,0004.61,0001.64,0001.00
2022-01-28 12:52:00,,0834.7,5.00,0.00,22.3,22.6,00.0,31.2,24.1,04.9,0000.0,0004.49,0001.63,0001.00
2022-01-28 12:53:00,,0834.7,4.99,0.00,22.4,23.2,00.0,31.3,24.3,04.9,0000.0,0004.93,0001.59,0001.00
2022-01-28 12:54:00,,0834.7,5.01,0.00,22.5,23.0,00.0,31.3,24.4,04.9,0000.0,0005.43,0001.54,0001.00
2022-01-28 12:55:00,,0834.7,5.00,0.00,22.5,22.7,00.0,31.3,24.3,04.9,0000.0,0005.25,0001.47,0001.01
2022-01-28 12:56:00,,0834.7,4.99,0.00,22.4,22.4,00.0,31.3,24.1,04.9,0000.0,0004.97,0001.40,0001.03
2022-01-28 12:57:00,,0834.7,4.99,0.00,22.4,22.1,00.0,31.3,24.0,04.9,0000.0,0005.07,0001.42,0001.04
2022-01-28 12:58:00,,0834.7,5.01,0.00,22.3,21.9,00.0,31.3,23.9,04.9,0000.0,0005.24,0001.45,0001.04
2022-01-28 12:59:00,,0834.7,5.01,0.00,22.2,21.7,00.0,31.3,23.9,04.9,0000.0,0005.13,0001.47,0001.04
